軌道要素
Epoch 2018 Nov. 18.0 TT = JDT 2458440.5
T 2018 Dec. 4.76537 TT MPCW
q 2.3792589 (2000.0) P Q
n 0.23327057 Peri. 341.70788 -0.19830686 -0.95932810
a 2.6135416 Node 119.30001 +0.92557279 -0.25072986
e 0.0896418 Incl. 13.31949 +0.32247388 +0.12970787
P 4.23
From 65 observations 2018 Dec. 31-2019 Mar. 2, mean residual 0".6.
|